Location: Anuling
(14.1239°N, 120.8922°E)
Time: 06:14:11
(UTC+00:00)

Cosmos 1470 Rocket - Pass Details

Date: 14 January 2026
Orbit: 597 x 626 km, 82.5° (Epoch: 7 February)

Event Time Altitude Azimuth Distance (km) Brightness Sun altitude
Rises 10:12:56 0° 357° (N) 2,848 6.8 -6.8°
Reaches altitude 10° 10:15:08 10° 358° (N) 1,949 5.9 -7.3°
Maximum altitude 10:19:27 81° 86° (E) 619 3.5 -8.3°
Drops below altitude 10° 10:23:48 10° 173° (S) 1,966 6.3 -9.2°
Sets 10:26:02 0° 174° (S) 2,874 7.2 -9.8°
